Location: North Evanston
(42.0634°N, 87.6976°W)
Time: 14:11:18
(UTC+00:00)

Vanguard 3 - Pass Details

Date: 17 May 2026
Orbit: 507 x 3204 km, 33.3° (Epoch: 6 June)

Event Time Altitude Azimuth Distance (km) Brightness Sun altitude
Rises 22:24:57 0° 271° (W) 7,071 13.2 28.0°
Reaches altitude 10° 22:29:44 10° 268° (W) 6,119 13.4 27.1°
Maximum altitude 22:48:30 58° 197° (SSW) 3,199 10.6 23.6°
Drops below altitude 10° 23:02:12 10° 124° (ESE) 4,608 10.5 21.1°
Sets 23:05:15 0° 120° (ESE) 5,299 10.8 20.6°
